Regional Weather Roundup
Issued by NWS

Home | Current Version | Previous Version | Text Only | Print | Product List | Glossary Off
Versions: 1 2 3 4 5 6 7 8 9 10 11 12 13 14 15 16 17 18 19 20 21 22 23 24 25 26 27 28 29 30 31 32 33 34 35 36 37 38 39 40 41 42 43 44 45 46 47 48 49 50

000
ASUS45 KCYS 190410
RWRWY

WYOMING REGIONAL WEATHER ROUNDUP
NATIONAL WEATHER SERVICE CHEYENNE WY
900 PM MST SUN FEB 18 2018

NOTE:  "FAIR" INDICATES FEW OR NO CLOUDS BELOW 12,000 FEET
WITH NO SIGNIFICANT WEATHER AND/OR OBSTRUCTIONS TO VISIBILITY.

WYZ001-190500-
YELLOWSTONE NATIONAL PARK

CITY           SKY/WX    TMP DP  RH WIND       PRES   REMARKS
LK YELLOWSTONE   N/A     10   7  87 CALM      29.45R
W YELLOWSTONE  NOT AVBL

$$
WYZ002>013-054>058-071-098>099-190500-
NORTHERN WYOMING

CITY           SKY/WX    TMP DP  RH WIND       PRES   REMARKS
JACKSON        MOCLDY    17  12  80 VRB3      29.47S
CODY           LGT SNOW   1  -5  75 NW13      29.80R WCI -17
GREYBULL       LGT SNOW   6   3  87 NW8       29.83S FOG     WCI  -7
WORLAND        CLOUDY     6   1  80 NW8       29.84R WCI  -7
SHERIDAN       LGT SNOW   4   1  88 NW7       29.92F FOG     WCI  -8
BUFFALO        CLOUDY     2  -2  83 N13       29.82R FOG     WCI -15
GILLETTE       LGT SNOW   3  -1  83 N16       29.87R FOG     WCI -16
HULETT         LGT SNOW   5   1  85 MISG      29.88R
NEWCASTLE      LGT SNOW   9   5  85 N8        29.80R VSB 3/4 WCI  -4

$$
WYZ014>020-022>026-101>103-190500-
CENTRAL WYOMING

CITY           SKY/WX    TMP DP  RH WIND       PRES   REMARKS
BIG PINEY      CLOUDY    20  16  84 S6        29.49F WCI  12
PINEDALE       CLOUDY    21  14  73 S3        29.47F
DUBOIS         NOT AVBL
LANDER         LGT SNOW   8   5  87 E8        29.67R VSB 1   WCI  -4
RIVERTON       LGT SNOW   6   1  80 E16       29.65F VSB 1   WCI -12
CASPER         FOG        2  -2  83 NE17      29.78R VSB 3/4 WCI -18
DOUGLAS        LGT SNOW   5   0  79 NW15      29.80R VSB 1   WCI -13

$$
WYZ021-027>030-104>119-190500-
SOUTHERN WYOMING

CITY           SKY/WX    TMP DP  RH WIND       PRES   REMARKS
EVANSTON       SNOW      21  20  96 N8        29.48S VSB 1/2 WCI  11
FORT BRIDGER   SNOW      21  21 100 N5        29.52  VSB 1/2 WCI  15
ROCK SPRINGS   MOCLDY    22  19  89 N6        29.50F WCI  14
DIXON          CLOUDY    31  25  78 NW12      29.49R WCI  22
RAWLINS        FOG       11   8  88 NW14      29.51R VSB 1/2 WCI  -5
SARATOGA       LGT SNOW  25  25 100 NW10      29.49R VSB 3/4 WCI  15
LARAMIE        FAIR      28  17  63 W8        29.43R WCI  20
CHEYENNE       LGT SNOW  15  14  95 N18G28    29.57R FOG     WCI  -2
TORRINGTON     LGT SNOW  12   8  84 NE16G25   29.76R FOG     WCI  -5
PINE BLUFFS    CLOUDY    16  14  93 N25       29.61S WCI  -3

$$



USA.gov is the U.S. government's official web portal to all federal, state and local government web resources and services.